Location: Slemon Park
(46.4340°N, 63.8219°W)
Time: 09:31:28
(UTC-03:00)

ISS - All Passes

Search period start: 25 April 2015 00:00
Search period end: 05 May 2015 00:00
Orbit: 395 x 402 km, 51.6° (Epoch: 25 April)

Date Brightness Start Highest point End Pass type
(mag) Time Alt. Az. Time Alt. Az. Time Alt. Az.
25 Apr - 12:51:33 10° SSW 12:54:30 33° SE 12:57:29 10° ENE daylight
25 Apr - 14:27:35 10° W 14:30:47 51° NNW 14:34:00 10° ENE daylight
25 Apr - 16:04:36 10° WNW 16:07:35 31° N 16:10:33 10° ENE daylight
25 Apr - 17:41:07 10° WNW 17:44:21 55° NNE 17:47:34 10° E daylight
25 Apr - 19:17:42 10° W 19:20:36 29° SW 19:23:27 10° SSE daylight
26 Apr - 11:58:17 10° S 12:00:38 19° SE 12:03:02 10° E daylight
26 Apr - 13:33:25 10° WSW 13:36:41 77° NNW 13:39:58 10° ENE daylight
26 Apr - 15:10:22 10° WNW 15:13:22 32° N 15:16:22 10° ENE daylight
26 Apr - 16:47:06 10° WNW 16:50:14 40° NNE 16:53:20 10° E daylight
26 Apr - 18:23:28 10° WNW 18:26:40 52° SSW 18:29:50 10° SE daylight
27 Apr - 11:06:18 10° SE 11:06:49 10° SE 11:07:26 10° ESE daylight
27 Apr - 12:39:26 10° SW 12:42:40 64° SSE 12:45:55 10° ENE daylight
27 Apr - 14:16:05 10° W 14:19:10 37° NNW 14:22:15 10° ENE daylight
27 Apr - 15:53:00 10° WNW 15:56:02 33° N 15:59:04 10° ENE daylight
27 Apr - 17:29:23 10° WNW 17:32:40 89° SSW 17:35:56 10° ESE daylight
27 Apr - 19:06:37 10° W 19:08:39 15° SW 19:10:36 10° S daylight
28 Apr - 11:45:42 10° SSW 11:48:42 36° SE 11:51:45 10° ENE daylight
28 Apr - 13:21:50 10° W 13:25:02 48° NNW 13:28:13 10° ENE daylight
28 Apr - 14:58:51 10° WNW 15:01:50 31° N 15:04:48 10° ENE daylight
28 Apr - 16:35:21 10° WNW 16:38:35 59° NNE 16:41:49 10° ESE daylight
28 Apr - 18:11:58 10° W 18:14:47 27° SW 18:17:35 10° SSE daylight
29 Apr - 10:52:20 10° S 10:54:49 20° SE 10:57:20 10° E daylight
29 Apr - 12:27:39 10° WSW 12:30:55 72° NNW 12:34:11 10° ENE daylight
29 Apr - 14:04:37 10° WNW 14:07:37 32° N 14:10:37 10° ENE daylight
29 Apr - 15:41:19 10° WNW 15:44:27 42° NNE 15:47:35 10° E daylight
29 Apr - 17:17:43 10° WNW 17:20:52 47° SW 17:24:01 10° SE daylight
30 Apr - 09:59:53 10° SSE 10:00:59 11° SE 10:02:12 10° ESE daylight
30 Apr - 11:33:38 10° SW 11:36:52 70° SSE 11:40:08 10° ENE daylight
30 Apr - 13:10:21 10° W 13:13:25 36° N 13:16:30 10° ENE daylight
30 Apr - 14:47:14 10° WNW 14:50:17 34° N 14:53:19 10° ENE daylight
30 Apr - 16:23:36 10° WNW 16:26:53 82° SSW 16:30:08 10° ESE daylight
30 Apr - 18:01:01 10° WSW 18:02:50 14° SW 18:04:33 10° SSW daylight
01 May - 10:39:50 10° SW 10:42:54 39° SE 10:45:59 10° ENE daylight
01 May - 12:16:05 10° W 12:19:15 46° NNW 12:22:25 10° ENE daylight
01 May - 13:53:05 10° WNW 13:56:04 31° N 13:59:03 10° ENE daylight
01 May - 15:29:34 10° WNW 15:32:49 63° NNE 15:36:03 10° ESE daylight
01 May - 17:06:15 10° W 17:08:59 24° SW 17:11:41 10° SSE daylight
02 May - 09:46:24 10° SSW 09:49:00 22° SE 09:51:38 10° E daylight
02 May - 11:21:53 10° WSW 11:25:08 67° NNW 11:28:24 10° ENE daylight
02 May - 12:58:52 10° WNW 13:01:51 31° N 13:04:50 10° ENE daylight
02 May - 14:35:31 10° WNW 14:38:41 44° NNE 14:41:50 10° E daylight
02 May - 16:11:56 10° WNW 16:15:04 43° SW 16:18:10 10° SE daylight
03 May - 08:53:42 10° SSE 08:55:09 13° SE 08:56:43 10° ESE daylight
03 May - 10:27:50 10° WSW 10:31:04 76° SSE 10:34:20 10° ENE daylight
03 May - 12:04:35 10° WNW 12:07:39 35° N 12:10:42 10° ENE daylight
03 May - 13:41:27 10° WNW 13:44:30 35° N 13:47:34 10° E daylight
03 May - 15:17:48 10° WNW 15:21:05 76° SSW 15:24:20 10° SE daylight
03 May - 16:55:27 10° WSW 16:57:00 13° SW 16:58:27 10° SSW daylight
04 May - 09:33:59 10° SW 09:37:05 43° SE 09:40:12 10° ENE daylight
04 May - 11:10:19 10° W 11:13:28 44° NNW 11:16:37 10° ENE daylight
04 May - 12:47:19 10° WNW 12:50:18 31° N 12:53:17 10° ENE daylight
04 May - 14:23:45 10° WNW 14:27:01 67° NNE 14:30:16 10° ESE daylight
04 May - 16:00:30 10° W 16:03:09 22° SW 16:05:45 10° SSE daylight
